Location: Rochester
(43.1610°N, 77.6109°W)
Time: 09:26:57
(UTC-04:00)

OTV 5 (USA 277) - Visible Passes

Search period start: 22 October 2019 00:00
Search period end: 01 November 2019 00:00
Orbit: 310 x 324 km, 54.5° (Epoch: 17 October)

Date Brightness Start Highest point End Pass type
(mag) Time Alt. Az. Time Alt. Az. Time Alt. Az.
22 Oct ? 06:07:29 10° S 06:07:29 10° S 06:07:29 10° S visible
27 Oct ? 20:27:43 10° SW 20:27:43 10° SW 20:27:43 10° SW visible
28 Oct ? 19:08:38 10° S 19:10:51 22° SE 19:11:24 21° ESE visible
29 Oct ? 19:22:34 10° SW 19:25:16 64° SE 19:25:53 45° ENE visible
30 Oct ? 19:37:12 10° WSW 19:39:50 44° NW 19:40:14 40° N visible
31 Oct ? 19:52:19 10° W 19:54:30 22° NNW 19:54:30 22° NNW visible
